Rapid City, SD

9:15 AM MDT on March 29, 2017 (GMT -0600)
Rapid City Regional

Weather History for KRAP - July, 2013

Change the Weather History Date:

Tuesday, July 30, 2013

  Actual Average Record
Temperature  
Mean Temperature 74 °F 74 °F  
Max Temperature 88 °F 89 °F 109 °F (2006)
Min Temperature 59 °F 59 °F 43 °F (1971)
Degree Days  
Heating Degree Days 0 0  
Month to date heating degree days 5 10  
Since 1 June heating degree days 85 109  
Since 1 July heating degree days 5 10  
Cooling Degree Days 9 9  
Month to date cooling degree days 262 241  
Year to date cooling degree days 340 340  
Since 1 June cooling degree days 332 325  
Growing Degree Days 24 (Base 50)    
Moisture  
Dew Point 59 °F    
Average Humidity 62    
Maximum Humidity 87    
Minimum Humidity 36    
Precipitation  
Precipitation 0.16 in 0.07 in 1.23 in (2001)
Month to date precipitation 1.87 1.78  
Year to date precipitation 11.65 11.00  
Snow  
Snow 0.00 in 0.00 in 0.00 in ()
Month to date snowfall 0.0 0.0  
Since 1 June snowfall 0.0 0.0  
Since 1 July snowfall 0.0 0.0  
Snow Depth 0.00 in    
Sea Level Pressure  
Sea Level Pressure 30.06 in    
Wind  
Wind Speed 9 mph (NE)    
Max Wind Speed 35 mph    
Max Gust Speed 43 mph    
Visibility 10 miles    
Events Rain , Thunderstorm    
T = Trace of Precipitation, MM = Missing Value Source: NWS Daily Summary

Daily Weather History Graph

Daily Weather History Graph

Search for Another Location

Airport or City:

Trip Planner

Search our weather history database for the weather conditions in past years. The results will help you decide how hot, cold, wet, or windy it might be!

Date:

Astronomy

Jul. 30, 2013 Rise Set
Actual Time 5:38 AM MDT 8:18 PM MDT
Civil Twilight 5:05 AM MDT 8:51 PM MDT
Nautical Twilight 4:23 AM MDT 9:32 PM MDT
Astronomical Twilight 3:35 AM MDT 10:20 PM MDT
Moon No Moon Rise 2:39 PM MDT (7/30)
Length of Visible Light 15h 46m
Length of Day
14h 39m
Last Quarter, 40% of the Moon is Illuminated
Jul 30
Last Quarter
Aug 6
New
Aug 14
First Quarter
Aug 20
Full
Aug 28
Last Quarter

Hourly Weather History & Observations

Time (MDT) Temp. Heat Index Dew Point Humidity Pressure Visibility Wind Dir Wind Speed Gust Speed Precip Events Conditions
12:52 AM 66.0 °F - 53.1 °F 63% 30.04 in 10.0 mi NNW 9.2 mph - N/A   Clear
1:52 AM 66.0 °F - 52.0 °F 60% 30.04 in 10.0 mi NW 8.1 mph - N/A   Clear
2:52 AM 64.9 °F - 52.0 °F 63% 30.03 in 10.0 mi North 6.9 mph - N/A   Partly Cloudy
3:52 AM 64.9 °F - 53.1 °F 65% 30.02 in 10.0 mi NNE 9.2 mph - N/A   Clear
4:52 AM 63.0 °F - 55.0 °F 75% 30.02 in 10.0 mi NNE 5.8 mph - N/A   Clear
5:52 AM 59.0 °F - 55.0 °F 87% 30.04 in 10.0 mi NW 4.6 mph - N/A   Clear
6:52 AM 64.9 °F - 55.0 °F 70% 30.05 in 10.0 mi Calm Calm - N/A   Clear
7:52 AM 68.0 °F - 57.9 °F 70% 30.06 in 10.0 mi SE 3.5 mph - N/A   Clear
8:52 AM 73.0 °F - 60.1 °F 64% 30.06 in 10.0 mi SE 8.1 mph - N/A   Clear
9:52 AM 75.9 °F - 61.0 °F 60% 30.04 in 10.0 mi SSE 9.2 mph - N/A   Clear
10:52 AM 80.1 °F 80.9 °F 60.1 °F 50% 30.02 in 10.0 mi South 10.4 mph 19.6 mph N/A   Clear
11:52 AM 84.9 °F 84.4 °F 59.0 °F 41% 30.00 in 10.0 mi SSW 10.4 mph 18.4 mph N/A   Clear
12:52 PM 87.1 °F 86.1 °F 57.9 °F 37% 29.98 in 10.0 mi SSW 9.2 mph - N/A   Clear
1:39 PM 86.0 °F 84.9 °F 57.2 °F 37% 30.05 in 10.0 mi Calm Calm - N/A Thunderstorm Clear
1:52 PM 88.0 °F 86.7 °F 57.0 °F 35% 29.96 in 10.0 mi East 8.1 mph 17.3 mph N/A Thunderstorm Thunderstorm
2:13 PM 69.8 °F - 59.0 °F 68% 30.06 in 1.8 mi NNW 26.5 mph 42.6 mph 0.02 in Rain , Thunderstorm Heavy Thunderstorms and Rain
2:20 PM 71.6 °F - 60.8 °F 69% 30.05 in 10.0 mi ENE 6.9 mph 42.6 mph 0.15 in Rain , Thunderstorm Heavy Thunderstorms and Rain
2:50 PM 82.4 °F 82.9 °F 60.8 °F 48% 30.04 in 10.0 mi Calm Calm - 0.16 in   Clear
2:52 PM 82.0 °F 82.7 °F 61.0 °F 49% 29.96 in 10.0 mi Calm Calm - 0.16 in   Clear
3:52 PM 79.0 °F - 62.1 °F 56% 29.98 in 10.0 mi NE 25.3 mph 33.4 mph N/A   Clear
4:52 PM 73.0 °F - 61.0 °F 66% 30.03 in 10.0 mi ENE 27.6 mph 33.4 mph N/A   Clear
5:52 PM 73.0 °F - 61.0 °F 66% 30.06 in 10.0 mi ENE 6.9 mph - N/A   Clear
6:52 PM 71.1 °F - 57.9 °F 63% 30.08 in 10.0 mi ENE 11.5 mph - N/A   Clear
7:52 PM 66.9 °F - 61.0 °F 81% 30.10 in 10.0 mi ENE 13.8 mph - N/A   Clear
8:52 PM 64.9 °F - 61.0 °F 87% 30.13 in 10.0 mi ESE 4.6 mph - N/A   Partly Cloudy
9:22 PM 66.2 °F - 60.8 °F 83% 30.21 in 10.0 mi NE 4.6 mph - N/A   Mostly Cloudy
9:52 PM 66.0 °F - 61.0 °F 84% 30.15 in 10.0 mi East 4.6 mph - N/A   Mostly Cloudy
9:59 PM 64.4 °F - 60.8 °F 88% 30.22 in 10.0 mi NE 4.6 mph - N/A   Scattered Clouds
10:44 PM 64.4 °F - 60.8 °F 88% 30.22 in 10.0 mi WNW 6.9 mph - N/A   Mostly Cloudy
10:52 PM 64.9 °F - 61.0 °F 87% 30.14 in 10.0 mi WNW 4.6 mph - N/A   Mostly Cloudy
11:52 PM 64.9 °F - 60.1 °F 84% 30.12 in 10.0 mi WSW 10.4 mph - N/A   Clear